Wind_Speed
17 17 15 13 11 12 16 20 22 22 23 25 25 27 29 23 11 4 3 3 6 12 11 8 8 7 4 4 5 7 8 9 10 11 11 11 12 12 13 13 14 15 15 16 15 16 19 19 18 19 21 24 25 24 21 20 19 18 19 19 18 15 16 17 16 16 16 15 14 13 12 11 10 10
18 17 16 16 16 15 15 19 23 25 24 23 24 26 28 28 20 11 7 4 8 13 13 9 9 10 8 5 4 6 7 7 8 8 9 9 9 10 10 11 12 13 13 14 13 13 15 16 17 18 19 21 24 25 23 20 19 19 20 21 19 16 16 18 18 18 18 18 18 17 16 14 13 12
16 17 16 16 18 19 19 18 21 23 21 21 25 26 25 26 25 21 14 6 7 14 14 11 11 11 9 7 5 6 6 6 6 6 6 6 6 6 7 8 9 10 11 12 12 12 13 13 14 16 17 18 20 23 24 22 19 18 18 19 18 16 16 19 20 20 20 21 21 21 20 18 16 14
14 16 16 17 18 20 21 21 20 18 16 16 21 26 26 23 22 22 18 10 9 13 14 13 12 11 9 9 7 6 6 5 5 4 4 3 4 4 5 6 6 7 9 10 10 10 11 11 12 14 14 15 17 19 23 24 21 17 16 15 16 16 17 19 21 22 23 24 25 25 25 23 21 18
14 15 15 16 17 18 18 18 17 15 13 11 12 19 25 23 21 21 18 15 12 11 12 14 12 11 10 10 9 8 5 4 4 4 4 3 2 2 4 4 4 5 7 9 9 9 9 9 10 12 12 13 15 17 21 25 22 17 15 14 13 14 15 17 19 21 22 24 26 28 28 27 25 22
15 16 16 15 14 15 15 14 12 11 10 10 10 13 20 23 21 19 17 17 15 12 14 16 14 12 12 10 10 9 6 4 4 4 5 4 3 2 3 4 4 5 6 8 9 9 8 8 9 11 12 14 17 19 22 24 21 16 15 13 11 11 13 14 16 18 19 22 25 27 29 28 26 24
14 15 16 14 12 13 13 11 10 10 10 10 11 13 17 19 19 16 15 16 16 16 16 16 15 14 12 11 11 9 8 7 5 4 4 4 5 6 5 4 4 6 6 8 9 10 8 8 9 11 15 19 21 22 21 19 17 16 14 12 10 10 12 13 14 15 17 19 22 26 27 26 26 24
14 15 15 13 12 12 13 11 10 10 11 12 13 14 14 15 15 15 14 14 16 18 18 16 16 15 12 10 10 9 9 9 5 3 3 5 9 8 6 4 4 5 5 7 9 9 8 7 9 13 19 22 22 20 17 15 16 16 14 12 10 11 12 13 14 15 15 17 20 23 24 24 25 25
16 15 15 14 12 12 13 12 10 10 11 14 15 14 13 14 14 15 15 14 14 17 18 17 16 15 12 10 10 10 11 10 6 4 4 7 9 7 5 4 3 3 5 6 7 7 6 7 11 17 20 20 18 15 14 14 16 16 15 13 12 11 12 13 14 15 15 16 19 22 22 22 23 24
16 15 15 15 14 14 14 14 12 11 12 15 16 14 13 14 15 16 16 13 12 15 16 15 15 15 13 11 10 11 12 12 10 9 8 8 7 6 5 3 2 3 4 5 6 5 6 10 14 18 18 16 15 14 13 14 15 15 17 17 15 13 12 13 14 14 15 16 19 21 21 20 20 21
16 15 16 16 16 16 16 15 15 13 13 15 15 14 14 15 15 16 15 12 10 12 14 14 14 14 14 12 12 11 12 13 13 13 12 10 8 6 4 2 2 3 2 2 3 6 10 13 16 16 15 14 14 13 12 13 14 15 16 16 15 14 13 13 13 14 15 17 18 20 20 19 18 19
15 16 16 17 17 17 17 16 15 14 14 15 15 15 15 15 15 15 14 12 11 11 13 15 14 13 14 14 12 11 12 14 14 14 12 10 8 5 3 2 3 2 1 4 7 11 14 15 15 14 13 12 12 12 11 11 13 14 13 12 12 13 13 13 13 14 16 17 19 19 20 19 18 17
16 16 17 16 16 16 16 16 15 14 15 15 15 16 16 15 15 14 14 13 12 11 12 13 12 11 11 11 10 11 14 15 14 13 11 9 8 5 3 2 1 2 6 10 13 14 15 15 14 12 11 11 10 11 11 11 12 12 11 11 11 12 12 12 13 14 16 18 19 20 20 19 17 15
19 18 18 17 17 16 16 17 16 15 15 14 14 15 16 17 16 14 14 13 12 12 12 11 10 9 8 8 8 9 12 13 12 11 10 8 6 3 1 1 2 6 10 13 16 15 14 13 12 9 8 9 9 11 13 13 13 13 13 13 13 13 12 11 11 12 13 15 17 17 18 17 15 13
22 22 21 20 20 20 19 19 19 18 17 15 15 14 15 16 16 15 15 15 14 13 12 11 11 10 9 9 8 8 10 11 11 10 8 6 3 1 2 3 5 9 11 13 14 14 11 8 6 5 6 8 10 13 14 14 15 15 15 15 14 13 12 11 10 9 9 10 12 14 15 16 15 12
22 23 22 21 22 22 22 21 21 20 19 18 17 16 16 16 16 16 16 16 16 15 14 13 12 12 10 9 10 10 11 12 10 8 5 3 0 2 3 4 6 9 10 9 10 9 7 6 5 5 7 9 12 15 15 15 16 16 15 15 13 12 11 10 9 9 8 9 10 13 15 16 17 14
24 24 24 23 23 23 22 22 22 22 22 21 20 19 19 19 18 17 17 17 17 17 17 17 16 15 13 12 12 13 12 11 9 6 3 1 1 2 3 3 5 7 8 8 8 6 5 6 7 7 9 11 14 15 15 16 18 17 16 14 13 12 11 10 9 9 9 10 12 13 15 17 18 17
27 27 27 26 25 24 23 22 22 23 24 23 22 22 22 21 19 19 19 18 18 17 18 18 18 16 14 13 13 13 11 9 7 4 3 1 1 1 2 2 4 5 6 8 8 5 4 7 8 9 11 13 15 15 16 18 18 17 15 14 14 15 16 15 14 12 12 12 13 14 16 17 18 19
30 29 29 28 26 26 24 23 21 21 22 22 22 22 21 20 19 19 19 18 18 17 16 16 16 15 13 12 12 12 10 7 5 3 2 1 1 2 2 3 3 4 5 7 7 4 5 8 10 11 13 15 16 16 17 18 17 15 15 17 18 21 22 20 18 16 14 14 14 14 15 16 16 17
32 31 31 30 30 28 26 23 21 20 20 20 21 20 17 16 17 17 16 16 16 15 15 15 14 13 13 12 11 9 6 4 3 2 2 4 4 3 3 3 3 5 6 6 6 5 6 9 12 14 15 17 17 16 15 14 13 15 18 21 22 23 22 19 17 15 13 13 14 14 14 14 14 14
32 32 31 30 28 27 25 24 22 21 20 20 20 17 15 16 17 16 14 14 14 14 13 13 13 13 13 11 8 6 4 3 3 3 5 5 3 1 3 3 4 5 4 4 5 7 8 10 13 14 15 16 15 12 11 11 14 18 20 20 20 20 19 17 15 13 11 11 11 10 11 12 13 14
31 31 31 30 27 26 26 26 23 22 23 23 20 18 19 19 18 16 14 14 14 14 14 14 14 13 11 8 6 5 4 4 5 4 4 3 2 1 3 2 2 2 2 4 8 10 9 10 12 14 14 14 11 8 10 13 18 20 18 18 18 19 18 18 16 13 11 10 9 10 11 13 14 15
32 31 31 30 29 28 28 28 25 24 27 25 21 20 22 22 19 17 17 17 17 18 18 16 14 12 10 8 7 7 6 5 4 2 2 2 2 2 2 1 1 1 2 6 11 11 9 10 12 12 11 9 6 7 11 16 19 18 17 18 19 19 19 19 16 13 12 11 11 12 13 14 15 16
33 32 31 29 27 27 28 28 27 26 27 26 24 24 25 24 22 20 20 19 18 18 17 14 13 11 11 10 8 7 5 4 3 2 2 2 2 2 2 1 2 1 1 5 10 10 9 10 11 10 8 6 6 10 14 18 18 17 17 19 20 20 20 19 17 15 13 13 13 14 14 15 16 16
32 32 31 30 28 27 27 27 28 27 27 27 27 26 25 25 24 22 21 19 17 16 15 13 13 12 11 9 7 6 5 5 6 6 5 4 3 1 1 2 2 1 1 5 9 9 8 8 9 10 10 8 9 13 16 17 18 18 18 19 20 21 21 20 19 17 15 15 15 14 15 17 18 18
32 32 32 32 31 31 30 30 29 28 27 28 27 24 23 22 21 20 20 19 17 16 15 14 14 12 10 10 9 9 9 9 8 6 5 3 2 1 2 2 2 0 1 4 6 7 7 7 8 10 11 11 12 14 16 16 18 19 20 20 21 21 21 21 20 18 18 18 18 16 17 19 20 19
33 32 32 31 31 32 31 31 31 30 29 30 29 26 23 21 20 20 21 20 19 17 16 15 15 13 13 13 13 12 11 9 6 4 3 1 1 1 1 1 1 1 1 3 4 5 6 7 8 10 11 12 13 14 14 16 18 20 22 23 22 22 21 20 19 19 19 20 18 17 19 20 20 19
34 33 32 30 29 29 28 28 28 28 28 29 28 26 24 23 23 23 23 22 20 18 17 16 16 15 13 12 12 10 8 6 4 3 2 2 1 1 0 2 3 3 3 3 4 5 6 7 9 10 11 13 13 13 14 17 19 21 23 24 24 23 21 19 18 19 19 19 18 19 20 21 20 19
34 33 31 28 25 24 24 24 24 24 25 26 26 25 25 26 25 24 24 22 19 18 17 16 16 15 13 11 10 9 7 6 4 3 3 2 1 0 2 3 4 4 5 5 5 6 7 9 11 12 12 12 13 14 15 18 20 21 22 24 25 23 20 18 18 19 19 19 19 20 20 20 20 20
33 31 28 25 24 23 23 23 23 22 23 23 24 26 28 28 27 26 24 22 20 18 17 17 17 15 13 12 11 9 7 6 4 2 1 1 3 5 6 7 6 6 7 7 8 9 9 10 12 13 13 13 14 15 15 17 20 21 21 21 22 22 20 18 18 18 18 19 20 21 20 20 20 20
32 30 27 25 25 25 24 23 23 24 25 26 28 29 29 28 26 24 23 21 20 19 18 18 17 15 13 12 10 7 5 3 2 2 4 6 7 7 8 8 7 8 9 9 9 10 11 11 11 13 15 15 16 16 15 15 18 20 19 18 19 20 19 19 19 19 19 20 22 22 21 21 20 18
32 29 27 27 27 26 26 27 27 28 29 29 29 27 26 24 23 22 21 20 19 18 17 17 16 14 12 10 7 5 3 2 3 5 7 8 7 7 7 8 9 10 11 12 12 13 12 11 11 12 14 15 15 15 15 14 14 16 17 18 18 19 20 20 21 21 20 20 22 22 21 20 19 17
32 31 29 30 31 31 31 30 29 28 27 27 26 25 24 24 23 22 22 20 19 18 17 16 15 13 10 8 6 4 3 3 4 5 7 6 4 5 6 7 9 10 12 15 17 16 14 12 12 13 13 13 13 12 12 13 13 13 15 17 18 20 20 20 19 19 19 19 21 22 21 19 18 17
25 31 34 34 33 33 33 32 30 28 27 27 27 26 25 25 24 22 20 18 17 16 14 13 12 10 8 7 6 3 2 2 3 4 4 3 3 4 6 7 8 10 13 16 17 17 15 15 15 15 14 13 13 11 8 9 11 13 14 17 19 19 19 17 16 17 18 19 19 20 21 21 19 17
17 20 26 32 35 35 34 34 32 31 31 30 29 27 25 23 21 18 16 16 16 14 13 11 10 7 6 6 5 3 2 1 1 1 1 0 1 3 6 8 10 11 13 14 14 14 15 17 17 18 18 17 16 13 9 8 10 13 16 17 17 17 16 15 15 17 18 19 19 19 21 22 22 20
20 14 11 16 22 26 28 31 32 33 33 33 31 27 24 21 17 15 15 15 15 13 11 9 7 6 6 6 5 4 3 2 1 2 3 2 1 4 6 9 10 10 10 11 11 13 15 16 17 17 16 14 11 9 10 12 13 14 16 17 16 16 15 14 15 16 18 19 20 19 18 21 23 23
24 18 13 11 11 12 17 23 27 29 31 31 29 25 23 20 17 16 16 15 12 9 7 6 7 8 8 7 6 5 4 3 4 5 4 2 2 5 7 8 8 8 9 11 12 13 14 15 16 15 13 9 5 5 10 16 18 15 14 16 16 15 14 15 16 17 18 19 20 19 18 21 24 23
23 21 18 16 14 13 16 22 25 26 26 25 24 23 21 20 19 18 16 13 10 8 8 8 10 9 8 7 7 6 5 5 6 5 4 2 4 6 7 7 8 9 11 13 14 14 14 14 15 14 12 8 5 4 9 16 21 18 14 14 14 13 12 14 16 18 19 20 19 20 20 19 18 15
22 21 20 19 19 19 18 21 25 25 24 23 22 22 21 21 21 19 16 13 11 10 10 11 11 10 9 8 7 6 6 6 6 4 3 3 5 6 6 7 9 11 14 15 16 16 15 15 15 15 15 13 11 12 14 18 21 18 13 10 10 11 10 12 15 17 18 18 20 21 19 13 7 8
20 20 20 20 21 20 17 17 21 24 25 23 22 21 22 23 22 20 16 14 13 12 12 12 12 11 9 8 7 6 6 6 5 3 3 4 4 5 7 9 10 12 14 16 17 17 16 16 15 16 16 16 15 16 16 16 17 17 12 7 7 9 9 11 13 14 14 16 19 19 16 11 8 9
19 19 20 22 22 20 17 18 20 22 21 20 20 20 22 23 21 19 16 15 14 14 14 14 12 11 9 8 6 5 6 6 5 4 4 4 5 6 8 8 9 11 13 15 16 17 16 16 15 15 15 14 13 13 12 11 13 15 12 7 6 9 10 11 11 10 11 14 16 15 14 12 10 12
20 19 20 21 20 20 21 23 23 22 19 18 20 22 24 23 21 18 17 15 15 15 15 14 12 10 9 7 5 4 5 6 5 4 4 4 5 6 7 8 9 10 12 14 16 17 16 15 15 14 14 13 12 11 10 10 13 16 12 7 7 10 11 10 9 8 10 11 11 11 12 11 9 11
20 20 20 19 18 20 23 24 24 24 23 22 23 25 25 23 21 19 18 18 17 17 16 14 11 8 6 6 5 5 6 5 4 4 4 4 5 6 8 9 8 8 11 13 15 16 16 14 14 15 14 13 12 11 11 13 14 15 12 9 8 10 9 7 6 7 7 7 7 9 11 10 8 8
18 20 20 19 19 22 25 25 24 24 23 23 23 23 22 21 21 20 20 20 19 17 15 13 10 8 7 7 7 7 6 5 4 4 3 4 6 7 7 7 7 9 12 13 14 16 15 13 13 14 15 14 13 12 12 14 14 13 12 10 10 9 6 3 4 5 5 4 5 8 11 12 11 11
18 20 21 21 23 25 27 27 25 22 21 22 23 23 22 22 22 22 21 20 18 16 14 11 9 8 8 8 9 8 6 5 4 3 3 5 6 6 5 6 8 11 13 13 14 16 16 13 13 15 15 14 13 12 10 11 11 11 11 11 9 6 2 1 3 4 2 1 3 6 9 11 13 14
Wind_Direction
140 135 127 127 145 169 178 179 183 183 179 177 176 170 161 156 150 133 157 178 174 177 176 168 168 170 157 125 107 111 112 105 107 108 101 92 86 79 72 68 66 60 52 47 44 43 44 44 42 38 35 34 33 30 27 28 30 30 26 23 23 25 26 24 22 20 18 14 9 3 354 345 334 323
136 132 121 113 117 131 151 168 179 183 183 182 180 176 170 167 165 159 156 177 189 187 187 183 177 174 168 150 114 115 120 117 113 115 112 103 93 85 76 72 68 60 52 45 42 44 47 45 39 34 32 31 31 29 25 23 22 21 20 20 22 26 25 22 20 19 18 15 12 8 2 355 347 338
139 135 124 115 115 118 125 143 165 176 182 188 189 187 181 178 178 170 155 155 190 188 192 194 181 170 164 161 144 123 124 133 132 128 128 119 106 93 80 76 73 61 52 45 41 44 48 46 40 34 31 29 28 26 22 16 11 8 9 12 15 17 16 14 14 14 13 12 10 7 2 357 352 346
145 140 127 118 121 123 122 129 141 150 159 176 190 195 193 187 184 176 160 147 169 184 193 192 179 173 172 175 175 151 134 149 162 160 160 157 134 100 77 76 77 64 52 44 40 43 48 48 40 31 27 25 22 18 13 8 3 358 357 360 4 7 6 5 6 7 7 6 5 4 1 357 352 348
149 147 137 125 124 127 125 127 132 137 141 146 163 188 195 187 179 177 164 146 151 172 184 185 182 184 189 193 196 187 168 166 182 195 205 207 183 111 83 87 89 70 55 48 44 45 48 48 37 26 21 17 12 6 1 357 354 352 350 347 350 357 359 359 0 2 2 2 2 1 358 354 350 347
146 147 144 136 132 133 130 127 128 133 142 142 138 165 184 181 177 181 172 154 152 162 173 181 187 192 202 209 208 206 207 203 209 232 243 241 218 160 127 115 100 72 57 53 50 48 51 47 35 24 16 7 360 353 349 349 351 351 349 344 338 342 347 350 352 355 358 359 0 359 357 353 349 345
149 147 144 140 141 144 138 133 138 145 151 154 150 156 170 176 180 188 185 171 166 169 175 184 189 195 207 216 214 215 226 230 229 242 254 231 186 163 145 124 91 64 57 57 52 49 50 45 30 15 3 354 348 345 346 351 355 355 353 347 335 329 333 338 341 346 351 356 359 360 357 355 353 348
157 156 151 146 148 151 144 138 145 155 161 165 164 163 168 176 183 190 191 186 180 178 181 188 192 195 205 217 219 216 225 234 234 232 223 177 163 158 142 115 78 60 63 64 58 51 47 37 14 358 349 345 343 345 352 357 356 354 355 352 341 329 325 327 331 336 344 352 357 359 358 357 357 354
167 166 165 160 161 160 153 149 149 153 162 167 168 169 173 178 183 187 189 190 188 185 186 189 194 199 205 218 225 219 220 226 214 190 186 162 154 152 140 120 81 82 90 77 66 52 35 12 353 346 344 346 349 353 357 356 353 353 356 357 352 341 329 324 325 330 338 347 352 355 354 354 356 357
179 180 179 177 179 178 172 170 169 165 166 172 176 177 176 178 182 186 189 192 193 192 192 193 198 205 212 222 229 223 221 223 210 188 177 165 159 156 150 145 103 108 101 76 64 40 4 346 342 344 348 355 2 5 1 355 353 353 352 352 352 348 338 327 324 329 336 342 346 348 349 350 352 353
193 195 194 193 192 193 191 186 181 179 175 177 183 183 176 173 177 183 189 193 197 201 201 200 204 210 215 222 230 226 220 221 215 200 187 178 173 164 159 156 131 130 114 50 24 352 342 341 344 350 359 3 1 357 351 345 344 345 346 350 354 354 348 337 331 332 335 338 339 340 344 347 349 351
203 205 204 202 200 201 202 198 193 192 188 182 181 180 177 174 175 177 181 183 189 199 204 204 207 214 218 225 233 226 210 208 207 201 197 191 180 170 167 163 152 160 297 323 334 340 342 344 349 357 4 1 351 344 340 335 337 342 345 353 1 1 356 348 340 336 335 334 332 334 340 344 344 346
208 210 208 206 206 206 206 205 203 202 202 198 190 186 186 186 182 179 180 182 182 185 191 197 202 210 218 226 228 212 202 205 205 199 198 192 178 170 171 166 175 320 326 323 331 345 350 347 351 358 360 358 355 355 354 350 348 349 350 353 356 355 353 349 342 337 334 331 328 330 337 339 336 336
208 212 212 210 210 210 209 210 211 211 215 215 209 203 200 200 198 194 192 194 195 193 192 194 199 205 210 217 223 212 204 207 205 197 193 187 178 183 200 180 332 334 333 329 333 344 348 344 345 353 359 7 9 5 2 359 354 351 349 347 345 343 342 339 336 336 337 334 331 330 331 328 324 322
211 212 214 214 213 213 212 213 216 220 222 222 222 219 213 210 212 213 210 209 211 210 206 203 209 216 212 207 212 209 196 191 190 190 189 186 189 279 340 334 331 337 338 334 336 342 348 352 358 7 9 7 3 359 357 354 350 347 345 343 342 341 341 339 335 336 338 335 333 333 331 328 321 310
221 218 217 216 214 215 216 217 219 222 224 224 224 222 220 219 221 223 223 221 222 224 222 218 219 221 212 198 196 196 190 185 184 185 186 188 212 12 2 331 326 338 340 339 343 350 1 12 15 10 1 352 352 353 351 346 344 343 342 342 345 347 347 346 344 341 341 341 339 338 336 332 327 314
229 225 222 219 219 220 221 222 224 226 227 227 226 225 226 228 229 229 231 230 230 230 228 225 224 222 216 206 199 196 194 192 188 185 191 220 329 351 349 339 342 346 345 352 1 4 6 359 350 347 345 341 344 347 342 339 338 336 335 338 343 348 350 348 347 345 342 339 337 335 333 329 327 320
231 230 228 226 224 224 224 224 227 230 231 228 228 229 230 233 235 236 237 235 233 231 231 230 227 222 219 213 204 196 194 199 200 201 218 244 282 349 8 27 21 4 352 356 -0 355 349 346 342 343 340 335 339 340 334 331 331 329 331 335 337 340 340 337 334 334 333 331 330 330 330 327 325 322
232 232 232 231 229 228 226 224 226 234 239 236 231 230 230 231 235 237 237 235 232 229 227 225 220 214 209 205 200 194 194 205 221 235 242 220 159 125 97 76 51 27 1 355 356 351 349 346 339 337 334 329 330 330 324 322 324 326 330 333 332 331 330 329 328 325 325 326 327 327 327 325 324 325
234 235 237 236 233 231 230 230 234 242 249 244 234 227 226 231 234 234 232 228 225 222 219 217 216 210 200 195 193 190 194 215 235 232 180 149 146 127 103 82 44 19 355 351 1 -0 352 345 337 331 325 323 324 321 313 312 317 323 327 328 328 327 326 328 329 327 324 325 326 327 328 328 327 328
238 240 240 237 233 232 234 237 238 238 242 242 235 229 231 233 230 226 223 220 213 209 208 206 202 194 185 182 180 179 186 194 187 179 160 152 155 109 90 75 23 1 347 351 357 352 347 340 335 330 325 325 324 310 298 304 316 325 330 333 336 337 337 337 336 334 333 332 333 334 335 336 335 333
243 242 241 240 241 243 244 244 240 237 240 238 231 231 232 226 219 213 208 203 192 181 179 176 172 171 169 166 169 171 172 167 168 177 180 177 180 102 95 79 -0 352 4 353 344 344 343 336 335 336 332 328 319 291 291 313 327 333 338 342 345 346 346 346 344 341 343 348 351 350 347 344 343 340
246 245 245 245 247 248 248 247 242 236 235 231 227 233 229 218 216 215 205 194 182 171 169 168 164 162 159 156 157 159 159 162 172 191 204 182 152 127 130 113 354 12 14 346 340 342 344 337 339 344 339 325 305 292 310 325 333 338 341 342 343 345 345 347 348 347 349 356 360 356 352 348 346 342
247 246 245 246 246 245 244 243 237 231 232 234 238 239 230 222 227 222 201 190 185 176 171 167 159 154 153 153 154 158 164 170 162 142 123 107 101 121 145 52 14 18 340 333 336 342 343 335 334 339 334 313 294 306 322 331 335 339 341 340 340 342 343 345 348 349 350 353 356 356 351 348 345 341
250 246 244 243 241 238 235 233 230 229 234 242 245 238 228 229 235 220 196 186 185 178 170 161 153 151 155 159 161 160 152 137 124 117 110 109 113 109 354 340 349 50 19 335 336 340 339 331 331 335 331 315 305 314 325 332 335 337 338 337 336 338 340 342 344 346 346 346 349 351 346 342 342 340
253 251 248 244 241 239 236 234 235 239 243 245 241 231 223 226 224 205 188 181 176 169 163 155 151 152 154 152 144 136 128 122 122 122 120 124 124 356 325 303 278 213 0 340 340 345 342 336 339 342 337 327 322 325 327 327 330 333 333 333 334 335 337 338 339 342 344 343 345 346 341 337 337 338
256 255 251 247 244 243 242 243 246 250 251 245 237 229 223 217 205 188 179 174 169 164 158 151 145 143 143 139 132 129 128 130 136 137 125 107 6 321 297 294 315 341 340 333 339 346 347 347 349 348 344 336 330 328 325 322 326 330 329 330 333 336 337 338 338 339 341 341 342 341 336 334 336 337
256 255 253 249 245 244 245 247 248 247 242 234 228 221 214 203 189 177 172 170 166 161 154 146 139 137 141 141 138 138 141 145 149 141 121 122 143 175 279 342 350 353 348 341 342 345 349 353 353 350 347 341 332 324 320 320 324 328 330 330 332 335 338 339 338 339 340 339 338 335 332 333 336 334
254 254 252 248 244 242 241 238 234 230 224 220 215 208 198 187 177 170 169 170 167 160 152 144 137 135 137 139 140 141 143 144 143 137 133 137 151 299 327 333 338 347 354 355 355 352 345 344 344 344 343 343 337 329 324 322 323 326 328 327 327 332 339 341 339 339 338 334 332 331 331 332 332 330
253 251 248 241 235 229 224 219 213 206 201 198 192 185 179 173 169 169 171 172 169 162 153 145 140 137 136 135 135 138 142 144 138 126 102 -0 340 333 326 324 333 349 359 1 357 352 344 337 336 338 340 339 335 331 329 325 320 321 325 327 326 329 337 342 340 338 336 331 327 327 328 329 331 331
246 245 239 231 223 214 204 197 190 181 175 171 169 169 170 172 173 176 179 176 170 162 154 147 142 139 139 138 138 142 148 140 100 35 354 343 344 345 339 338 344 352 357 -0 358 353 348 340 332 333 338 338 332 329 327 322 316 317 324 331 330 327 331 338 337 334 332 328 324 324 326 329 334 337
237 232 223 211 201 192 184 178 174 171 168 167 167 168 171 173 174 175 173 166 160 157 155 151 147 144 144 145 145 144 132 81 35 3 347 343 347 352 351 353 354 353 353 355 354 351 349 344 334 331 335 337 333 330 325 318 314 317 324 330 330 325 326 331 329 327 329 327 323 324 327 330 338 343
225 213 201 192 187 183 180 179 177 175 172 170 169 169 169 167 166 165 162 157 155 157 160 156 151 147 145 143 137 127 98 50 17 352 343 342 346 353 358 3 5 3 357 351 348 348 349 348 341 335 335 335 334 332 324 313 313 322 326 325 324 322 323 326 326 328 332 331 327 328 327 327 336 343
216 198 188 185 184 184 183 183 181 178 173 166 163 161 161 161 160 159 157 154 154 158 160 155 149 146 143 136 131 118 87 38 1 344 339 341 344 354 5 14 15 7 356 347 344 345 347 347 345 341 340 340 340 341 335 313 311 321 324 319 319 322 325 330 333 335 338 336 332 331 327 324 330 338
211 200 190 187 187 187 187 184 180 175 169 162 158 157 158 158 158 154 151 152 154 156 153 147 143 141 138 137 136 128 112 73 -0 331 311 350 19 15 17 16 10 1 353 348 344 342 343 345 344 341 340 341 341 342 343 332 317 316 318 319 324 328 330 335 338 336 338 341 339 334 328 323 325 332
206 221 221 200 193 191 187 181 175 169 164 160 159 158 155 151 151 152 153 156 157 154 148 144 142 141 142 144 145 138 126 124 154 172 170 155 63 25 17 13 8 3 357 348 341 339 339 342 343 337 331 332 333 327 326 327 322 316 315 319 328 332 331 334 336 334 336 341 339 334 328 320 321 328
203 214 226 222 212 199 183 172 167 164 162 160 159 157 150 144 147 155 159 158 155 148 144 149 153 152 152 152 146 140 141 157 171 168 157 128 42 21 17 17 17 11 355 343 340 341 341 340 339 334 323 319 317 304 311 320 324 326 325 322 324 329 333 331 330 331 336 338 336 332 327 317 317 325
204 205 208 206 197 188 180 172 167 164 162 159 155 152 147 147 152 157 157 153 150 147 150 157 157 154 154 154 151 152 160 167 167 156 135 75 30 30 30 25 17 3 347 340 341 345 343 337 336 332 321 307 297 297 310 316 320 327 335 329 323 327 333 331 328 330 332 332 330 328 325 320 323 337
205 202 199 192 182 180 184 180 172 165 160 156 153 150 151 154 158 157 153 150 151 154 158 160 158 154 155 155 155 157 160 159 154 136 95 52 42 45 35 14 0 351 342 339 340 343 341 338 335 331 320 308 302 305 308 306 307 316 334 343 332 331 335 333 330 328 326 327 327 329 332 338 358 19
204 201 196 189 183 183 187 183 172 164 158 154 153 156 161 163 161 156 152 152 156 160 162 162 160 158 158 157 155 152 147 141 129 100 72 64 55 37 16 3 357 349 341 337 337 338 338 336 334 330 322 316 312 312 310 304 303 314 336 357 345 335 337 335 330 324 322 327 331 334 344 4 30 30
199 191 185 183 181 181 182 179 172 165 159 154 154 161 168 168 162 156 154 157 161 164 165 164 162 158 154 149 146 143 133 119 103 88 80 68 46 29 16 6 358 348 339 333 332 333 334 336 336 333 327 324 324 321 316 308 309 319 336 359 354 338 336 334 328 322 325 334 339 345 356 5 11 13
193 181 175 177 177 174 171 172 174 174 173 170 168 170 169 165 159 156 156 160 165 167 165 161 158 154 146 138 129 123 120 112 98 87 82 61 43 30 12 358 353 346 337 331 329 331 336 340 341 340 337 339 340 330 312 302 307 315 327 348 352 339 334 332 328 326 331 342 356 6 6 4 2 0
191 183 176 176 177 175 173 176 183 186 181 175 172 169 165 159 156 158 161 163 164 164 161 158 155 152 144 132 123 121 121 115 99 90 88 63 28 7 354 354 356 348 336 332 331 335 340 343 344 344 346 349 348 331 309 302 307 312 319 330 338 336 333 330 328 332 340 356 26 33 25 18 8 346
182 178 172 169 174 178 178 178 179 176 169 166 167 167 164 162 161 161 162 162 161 159 158 154 151 150 149 145 143 140 132 121 110 102 84 33 9 3 360 -0 354 340 336 336 335 336 341 345 343 344 348 349 345 331 316 311 311 310 311 317 325 330 333 329 329 339 353 27 54 43 32 24 13 357
167 164 163 163 166 168 166 164 162 160 160 164 166 165 166 167 163 159 159 159 158 157 155 153 152 156 157 156 156 150 135 123 116 95 35 11 10 13 10 359 347 340 339 340 336 334 339 345 347 346 347 348 347 341 327 314 308 304 306 314 322 327 328 329 339 344 355 63 53 32 25 19 9 5
Height
844 845 846 846 846 846 847 848 851 853 855 856 857 857 857 858 863 868 870 871 870 871 871 872 872 873 873 873 873 873 873 872 872 871 871 871 871 871 871 870 870 869 869 868 868 868 868 867 867 866 865 864 863 862 861 861 860 859 858 857 856 855 854 854 853 852 851 850 850 849 848 847 846 845
845 846 846 847 847 846 846 848 850 852 854 856 857 858 857 857 859 862 866 869 869 870 871 871 872 872 873 873 873 873 873 873 872 872 872 872 871 871 871 871 870 870 869 869 869 868 868 868 867 867 866 865 864 863 862 861 860 860 859 857 856 856 855 854 853 852 851 850 849 849 848 847 846 845
846 846 847 848 848 848 848 849 851 853 855 856 857 858 858 858 858 859 862 866 867 868 869 870 871 871 872 872 872 873 873 872 872 872 872 872 872 871 871 871 871 870 870 869 869 869 868 868 868 867 866 865 865 864 863 862 861 860 859 858 857 856 855 854 853 852 851 850 849 848 847 846 845 844
847 847 848 849 850 850 850 851 853 854 856 856 856 857 858 859 859 860 861 863 865 867 868 869 870 870 871 871 872 872 872 872 872 871 871 871 871 872 871 871 871 870 870 869 869 869 868 868 868 867 867 866 865 864 863 862 862 860 859 858 857 856 855 854 853 851 850 849 848 847 846 845 844 843
848 848 849 850 851 851 852 853 854 855 855 856 856 857 858 859 860 861 862 862 864 866 867 868 869 869 870 870 870 871 871 871 871 870 870 870 871 871 871 871 871 870 870 869 868 868 868 868 868 868 867 866 865 864 863 862 861 860 859 858 857 856 855 854 853 852 851 849 848 847 845 844 842 841
849 849 850 851 852 852 853 853 854 855 855 855 856 856 857 859 860 861 861 862 863 865 866 867 867 868 868 869 869 869 869 870 870 870 870 869 870 870 871 870 870 870 869 868 868 868 868 868 868 867 867 866 865 863 862 861 860 859 858 857 856 856 855 854 853 852 851 850 849 847 845 843 841 840
849 850 851 852 853 853 853 854 855 855 856 856 856 857 858 859 860 861 861 861 862 863 865 866 866 867 867 867 868 868 868 869 870 870 869 868 869 869 870 870 869 869 869 868 867 867 867 867 867 867 866 865 864 862 861 860 859 858 857 856 855 855 854 853 853 852 851 850 849 847 845 843 841 839
850 851 851 852 853 854 854 855 855 856 856 856 857 858 859 859 860 861 861 861 861 862 863 864 865 866 866 866 867 867 868 868 869 869 868 868 868 869 869 869 869 868 868 867 866 866 866 866 866 865 865 864 862 861 860 859 858 857 856 855 854 854 853 853 852 851 850 849 848 847 845 843 841 839
851 851 852 853 853 854 854 855 855 856 856 857 858 858 859 859 860 860 861 861 861 861 862 863 864 865 866 866 866 866 867 867 868 868 868 867 868 868 868 868 868 868 867 866 866 865 865 865 865 864 864 862 861 860 859 858 857 856 855 854 853 853 852 851 851 850 849 848 847 846 844 843 842 840
851 851 852 853 853 854 854 854 855 855 856 857 857 858 859 859 859 860 860 861 861 861 862 862 863 864 864 865 865 865 866 866 867 867 867 867 867 867 867 867 867 867 866 865 865 865 865 864 864 863 862 861 861 859 858 857 856 855 854 853 852 852 851 850 850 849 848 847 846 845 844 842 841 840
851 851 852 852 853 853 853 854 854 855 855 856 856 857 857 858 859 859 860 860 861 861 861 862 862 863 864 864 864 864 865 865 865 865 865 866 866 867 866 866 866 866 865 865 864 864 864 863 862 862 861 861 859 858 857 855 854 853 853 852 851 850 850 849 848 848 847 846 845 844 843 842 840 839
851 851 851 852 852 853 853 853 854 854 854 855 855 856 856 857 858 858 858 859 860 860 860 861 862 862 863 863 863 863 863 863 864 864 864 865 865 866 865 865 865 865 865 864 863 863 862 862 861 861 861 860 858 857 855 854 853 852 851 851 850 849 849 848 847 847 846 845 844 843 842 841 840 838
850 850 851 851 852 852 853 853 854 854 854 854 854 855 855 856 856 857 857 858 858 858 859 859 860 861 861 862 862 862 862 862 862 863 863 864 864 864 864 864 864 864 863 863 862 862 861 860 860 860 859 858 857 856 855 853 852 851 851 850 849 848 847 847 846 845 844 844 843 841 841 839 839 838
849 850 850 851 851 852 852 853 853 853 853 853 854 854 854 855 855 855 856 856 856 857 857 858 858 859 859 860 860 860 860 860 861 861 861 862 862 863 863 863 863 862 862 861 861 861 860 859 859 859 858 857 857 856 854 853 852 851 850 849 848 847 846 845 844 843 842 842 841 840 839 837 836 836
848 848 849 849 850 851 851 851 852 852 852 852 853 853 853 854 854 854 854 855 855 855 855 856 857 857 857 858 858 858 859 859 859 859 859 860 860 861 861 861 861 861 860 860 860 860 859 859 859 858 857 857 856 855 854 853 852 851 850 848 847 846 845 843 842 841 840 839 838 838 837 835 834 833
847 847 848 848 848 849 849 850 850 850 850 851 851 851 852 852 852 853 853 853 853 853 854 854 855 855 855 856 856 857 857 858 858 858 858 858 859 859 860 861 861 860 859 859 859 859 859 858 858 858 857 856 856 855 854 852 852 851 849 848 846 845 844 842 841 840 839 838 837 836 835 833 832 831
846 846 846 846 847 847 848 848 848 848 848 849 849 849 849 850 850 850 850 851 851 851 852 852 853 853 854 854 855 855 856 856 857 857 857 857 858 859 859 860 860 859 858 858 858 858 858 858 858 857 856 856 856 854 853 852 851 850 849 847 846 844 843 842 840 839 838 837 836 834 833 832 830 829
844 844 844 844 845 845 846 846 847 847 846 846 847 847 847 847 847 848 848 848 849 849 850 850 850 851 852 852 853 854 855 856 856 856 856 857 857 858 858 858 858 858 857 856 857 857 857 857 856 856 855 855 855 853 852 851 850 849 848 846 845 843 842 841 840 838 837 836 834 833 832 830 829 827
841 841 841 842 842 843 843 844 844 844 845 845 844 844 845 845 845 846 846 846 847 847 848 848 849 849 850 851 852 853 854 855 855 855 855 855 856 856 856 857 857 856 855 855 856 856 856 855 855 854 854 853 853 852 851 850 849 848 846 845 844 842 841 839 838 837 836 834 833 832 830 828 827 826
837 838 838 838 838 839 839 841 842 842 843 844 844 842 843 843 843 844 844 844 845 845 846 847 847 848 849 850 851 852 853 853 853 853 854 854 854 855 855 855 855 855 854 854 855 855 855 854 853 853 853 852 852 851 850 849 848 847 845 844 842 841 839 838 836 835 834 833 831 830 828 827 826 824
835 835 835 834 835 835 836 837 838 839 840 842 842 841 841 842 842 842 842 842 843 843 844 845 846 847 848 849 850 850 851 851 851 852 852 853 853 853 853 853 854 854 854 854 854 854 853 853 852 852 851 851 850 850 849 848 847 846 844 842 841 839 838 836 835 834 832 831 830 828 827 825 824 823
832 832 832 832 832 833 833 834 835 836 837 838 839 839 840 840 839 840 842 842 841 842 843 844 844 846 847 848 848 849 849 850 850 851 851 851 851 851 851 852 853 853 853 852 852 852 852 852 852 851 850 849 849 848 848 846 845 844 842 840 839 838 836 835 834 832 831 830 828 827 825 824 822 821
828 828 829 829 829 829 830 831 832 833 834 834 835 836 836 837 837 839 841 841 840 840 842 843 844 845 845 846 847 848 848 849 850 850 850 850 850 850 851 851 852 852 852 851 851 851 851 851 851 850 849 848 847 846 846 845 843 842 840 839 838 837 835 834 833 831 830 828 827 825 824 823 821 820
824 825 825 825 826 826 826 827 829 830 831 831 832 833 833 834 836 836 838 839 840 840 842 842 842 843 843 844 846 847 848 849 849 849 849 849 849 849 850 850 850 850 851 850 850 850 850 850 850 850 849 848 846 844 843 842 841 840 839 837 836 835 834 833 832 830 829 827 826 824 823 821 820 819
820 820 821 822 823 823 823 825 826 827 828 829 828 829 831 833 834 834 835 837 839 841 841 841 841 842 843 844 846 847 847 848 848 849 849 849 849 849 849 849 849 850 850 850 849 849 849 849 849 848 848 846 844 842 841 840 839 838 837 836 835 834 833 832 830 829 828 826 825 823 822 820 819 818
815 816 817 818 819 820 821 822 822 824 825 825 825 827 829 831 833 834 835 837 839 840 840 840 840 841 842 844 845 846 846 847 847 848 849 849 849 848 848 848 849 850 850 849 848 848 848 848 848 846 845 844 842 841 839 837 836 836 835 835 834 833 831 830 829 827 826 825 823 822 820 819 818 816
811 812 813 814 816 817 818 818 819 820 821 822 822 824 826 828 831 832 834 837 838 839 839 838 839 840 842 843 844 845 845 846 847 847 848 848 848 848 849 849 849 849 849 849 848 848 847 847 846 845 844 842 841 840 838 836 835 834 833 833 832 831 830 829 827 826 824 823 821 820 819 818 816 815
808 809 809 811 812 813 814 815 816 816 817 818 819 821 823 826 827 829 832 835 836 837 837 837 838 839 840 841 843 844 845 845 846 847 847 847 848 849 849 849 849 849 849 848 847 846 845 845 844 843 842 841 840 839 837 835 834 833 832 830 829 829 828 827 825 824 823 821 820 819 817 816 814 813
805 806 807 808 809 810 811 811 812 812 813 814 816 818 821 823 825 827 830 834 835 835 835 835 836 838 839 841 842 843 844 845 846 846 847 848 849 849 849 849 849 848 848 847 846 845 843 843 842 841 841 840 839 838 836 835 833 832 831 829 828 827 826 825 824 823 821 820 819 817 816 814 813 811
803 803 804 805 806 807 807 808 809 810 811 813 814 817 819 821 823 825 828 830 832 833 833 834 835 837 838 840 842 843 844 844 846 847 847 848 848 848 848 848 848 847 846 845 844 843 842 842 841 840 839 838 838 837 835 834 832 831 830 829 827 825 825 824 823 821 820 818 817 816 815 813 812 810
801 801 802 803 804 805 806 807 808 809 810 812 814 816 818 820 822 824 826 827 828 830 832 833 835 836 838 839 841 842 843 844 845 846 846 846 846 846 846 847 846 845 845 843 842 842 841 840 840 839 838 837 836 835 834 833 831 829 829 829 827 825 823 822 821 820 819 817 815 814 813 811 810 808
797 798 799 801 802 804 805 807 808 809 810 811 813 814 817 819 821 823 824 825 826 829 831 833 834 836 837 839 840 842 843 844 845 845 845 846 846 846 846 845 844 843 842 841 840 840 840 839 838 838 837 836 834 833 832 831 830 829 828 827 826 824 823 821 820 818 817 816 814 812 810 809 808 806
793 793 795 798 800 802 804 805 806 808 809 810 812 814 816 818 821 822 823 824 826 828 830 832 833 835 836 838 840 841 842 843 844 845 845 846 846 846 845 844 843 841 840 839 838 838 838 837 837 836 836 835 833 832 831 829 828 828 827 826 824 823 822 820 819 817 816 814 812 810 808 807 806 805
794 791 791 794 797 799 801 802 804 806 808 809 811 813 815 818 820 821 822 823 826 828 830 832 833 834 836 838 839 840 842 843 844 845 846 846 846 845 844 842 841 840 839 838 837 837 836 836 835 834 834 833 832 831 830 829 828 827 826 825 823 821 820 819 817 816 814 813 811 809 807 805 805 804
797 795 792 792 793 795 797 799 801 803 805 807 810 813 816 818 819 820 822 824 826 829 830 831 832 834 836 838 839 840 842 843 844 845 846 845 845 844 842 841 839 839 838 838 838 837 836 835 834 833 832 831 830 829 829 829 828 826 825 823 822 820 818 817 816 815 813 812 810 808 806 804 802 802
795 797 797 795 795 795 796 797 799 801 802 805 809 812 815 817 818 820 823 825 827 829 830 831 832 834 836 838 840 841 842 843 844 845 845 844 843 842 841 840 839 839 839 839 838 837 836 835 834 833 832 831 830 829 828 828 827 825 824 822 820 819 817 816 815 814 813 811 810 808 806 803 801 800
792 796 798 799 799 800 800 799 800 802 803 804 808 811 813 815 818 822 825 827 828 829 829 831 833 835 837 839 840 841 842 843 844 844 844 843 842 841 840 840 839 839 839 838 838 837 836 835 834 833 832 831 830 829 827 826 825 824 822 821 819 817 816 815 814 812 812 811 809 808 806 803 800 799
791 793 796 797 800 802 804 803 804 805 806 807 808 810 812 815 820 824 826 827 828 829 830 832 834 836 838 839 840 840 841 842 843 843 842 842 841 840 840 839 839 839 838 837 837 836 836 835 834 833 833 832 830 828 826 824 822 821 821 820 818 817 816 815 813 811 810 810 809 807 805 803 800 798
790 791 793 795 797 800 803 805 805 805 806 807 808 810 813 817 821 823 825 826 828 830 832 833 835 837 838 838 839 839 840 841 842 842 842 841 840 840 839 839 838 838 837 836 836 835 835 834 833 833 832 831 830 828 826 824 822 820 820 819 818 816 815 814 813 811 810 809 807 806 804 802 800 798
789 790 791 794 796 798 801 805 807 806 805 806 808 811 815 818 820 822 823 825 828 830 832 834 835 836 837 837 838 839 840 841 841 841 841 840 840 839 839 838 838 837 837 836 835 834 834 833 833 832 831 830 828 827 825 824 821 819 818 818 817 816 815 814 813 812 810 809 807 804 802 800 799 798
789 790 790 792 794 796 799 804 808 808 807 808 810 813 816 818 819 820 822 825 828 831 833 834 835 836 836 836 837 838 839 840 841 841 841 840 839 839 838 838 838 837 837 836 835 834 833 833 832 831 830 828 826 825 823 822 820 818 817 816 816 815 814 813 812 811 810 809 807 804 802 800 799 798
788 789 790 791 793 796 799 803 807 808 809 810 812 814 816 817 818 820 823 826 829 831 832 833 834 834 835 836 837 838 839 840 840 840 840 839 839 838 838 838 838 837 837 836 835 834 833 832 831 830 828 826 825 824 822 821 820 817 816 815 815 814 813 812 812 811 810 809 807 805 803 802 800 799
788 789 790 791 793 797 799 802 805 808 810 811 813 814 815 817 819 821 824 827 829 831 832 833 833 833 834 835 836 837 839 839 840 840 839 839 839 838 838 838 837 837 836 836 835 834 833 831 830 828 827 825 824 823 821 820 819 817 816 814 814 813 812 812 811 811 810 809 808 807 805 804 802 801
788 789 790 791 793 797 799 802 805 808 810 812 814 815 816 818 820 822 825 827 829 830 831 832 832 832 833 834 836 837 839 839 840 840 839 839 839 838 838 837 837 837 836 835 834 833 832 831 829 828 826 824 823 822 820 819 818 816 815 814 813 812 812 811 811 811 810 809 809 808 806 805 804 802
789 790 791 792 795 798 800 803 805 808 810 812 814 816 818 820 821 823 825 827 828 830 830 831 831 832 833 834 836 837 839 839 840 840 839 839 838 838 837 837 837 836 836 835 834 833 831 830 828 827 825 823 822 821 819 818 817 815 814 813 812 812 811 811 811 811 810 809 809 808 807 806 804 802